(202213) = 2004 XQ121

Discovered at Bergisch Gladbach on 2004-12-15 by W. Bickel.

Orbit

Orbit type: Main Belt

Note: WebGL enabled browser required.

epoch2023-02-25.0
epoch JD2460000.5
perihelion date2022-02-11.06426
perihelion JD2459621.56426
argument of perihelion (°)165.54748
ascending node (°)286.45413
inclination (°)2.56322
eccentricity0.1566189
perihelion distance (AU)2.2320928
Tisserand w.r.t. Jupiter3.4
ΔV w.r.t. Earth (km/sec)9.4
semimajor axis (AU)2.6466003
mean anomaly (°)86.74349
mean daily motion (°/day)0.22891350
aphelion distance (AU)3.061
period (years)4.31
P-vector [x]-0.03516713
P-vector [y]0.91241756
P-vector [z]0.40774681
Q-vector [x]-0.99846067
Q-vector [y]-0.01456741
Q-vector [z]-0.05351711
absolute magnitude16.86
phase slope0.15
uncertainty0
referenceMPO 745323
observations used460
oppositions15
arc length (days)8654
first opposition used1999
last opposition used2023
residual rms (arc-secs)0.80
perturbers coarse indicatorM-v
perturbers precise indicator003Ek
first observation date used1999-10-09.0
last observation date used2023-06-19.0
computer nameMPCLINUX
JD of orbit computation2456937.368405
perihelion JD uncertainty (days)9.0004E-05
argument of perihelion uncertainty (°)1.1483E-04
ascending node uncertainty (°)1.1286E-04
inclination uncertainty (°)3.3632E-06
eccentricity uncertainty 2.8029E-08
perihelion distance uncertainty (AU)7.1681E-08
Minimum Orbit Intersection Distances (in AU)
for orbit epoch: 2460000.5, reference: E2023-M63
Mercury1.92335
Venus1.51254
Earth1.24801
Mars0.63363
Jupiter2.12263
Saturn6.82986
Uranus15.8374
Neptune27.1983

Observations

469 total observations over interval: 1999 10 09.20648 – 2023 06 19.304990
These data are available for download (format description).

Date (UT) J2000 RA J2000 Dec Magn Location Ref
1999 10 09.20648 00 00 48.15 +04 33 34.1 20.0   704 – Lincoln Laboratory ETS, New Mexico MPS 125469
1999 10 09.22191 00 00 47.41 +04 33 30.8 19.7   704 – Lincoln Laboratory ETS, New Mexico MPS 125469
1999 10 09.23735 00 00 46.65 +04 33 25.3 19.6   704 – Lincoln Laboratory ETS, New Mexico MPS 125469
2003 08 04.37328 22 30 06.12 -06 41 14.7 22.1 V 691 – Steward Observatory, Kitt Peak-Spacewatch MPS 125469
2003 08 04.40618 22 30 04.75 -06 41 20.1 22.1 V 691 – Steward Observatory, Kitt Peak-Spacewatch MPS 125469
2003 08 04.43100 22 30 03.74 -06 41 23.8 21.6 V 691 – Steward Observatory, Kitt Peak-Spacewatch MPS 125469
2003 10 01.10843 21 47 34.81 -10 13 15.0 21.7 V 691 – Steward Observatory, Kitt Peak-Spacewatch MPS 125469
2003 10 01.13870 21 47 34.08 -10 13 19.3 21.7 V 691 – Steward Observatory, Kitt Peak-Spacewatch MPS 125469
2003 10 01.14077 21 47 34.06 -10 13 19.4 21.7 V 291 – LPL/Spacewatch II MPS 125469
2003 10 01.16439 21 47 33.54 -10 13 23.0 21.6 V 291 – LPL/Spacewatch II MPS 125469
2003 10 01.16725 21 47 33.44 -10 13 23.0 21.7 V 691 – Steward Observatory, Kitt Peak-Spacewatch MPS 125469
2003 10 01.18836 21 47 32.94 -10 13 26.3 21.4 V 291 – LPL/Spacewatch II MPS 125469
2004 12 14.38990 07 40 56.91 +21 54 07.0 19.6 R 703 – Catalina Sky Survey MPS 122826
2004 12 14.39736 07 40 56.68 +21 54 08.1 19.7 R 703 – Catalina Sky Survey MPS 122826
2004 12 14.40485 07 40 56.43 +21 54 07.0 19.1 R 703 – Catalina Sky Survey MPS 122826
2004 12 14.41233 07 40 56.12 +21 54 07.7 19.6 R 703 – Catalina Sky Survey MPS 122826
2004 12 15.06989 07 40 32.54 +21 54 10.2   621 – Bergisch Gladbach MPS 122826
2004 12 15.09329 07 40 31.67 +21 54 11.8   621 – Bergisch Gladbach MPS 122826
2004 12 15.11670 07 40 30.65 +21 54 10.6 20 R 621 – Bergisch Gladbach MPS 122826
2004 12 16.46798 07 39 39.45 +21 54 28.3 19.9 V 691 – Steward Observatory, Kitt Peak-Spacewatch MPS 122826
2004 12 16.49444 07 39 38.37 +21 54 28.5 19.9 V 691 – Steward Observatory, Kitt Peak-Spacewatch MPS 122826
2004 12 16.52084 07 39 37.28 +21 54 28.5 19.9 V 691 – Steward Observatory, Kitt Peak-Spacewatch MPS 122826
2004 12 20.14997 07 37 04.04 +21 55 30.6   621 – Bergisch Gladbach MPS 122826
2004 12 20.16167 07 37 03.51 +21 55 30.9   621 – Bergisch Gladbach MPS 122826
2004 12 20.17338 07 37 02.95 +21 55 31.0 20 R 621 – Bergisch Gladbach MPS 122826
2004 12 21.15019 07 36 18.02 +21 55 53.7   621 – Bergisch Gladbach MPS 122826
2004 12 21.16189 07 36 17.48 +21 55 53.7   621 – Bergisch Gladbach MPS 122826
2004 12 21.17358 07 36 16.75 +21 55 53.3   621 – Bergisch Gladbach MPS 122826
2005 01 11.29918 07 16 10.14 +22 06 12.1 18.8   704 – Lincoln Laboratory ETS, New Mexico MPS 124127
2005 01 11.31251 07 16 09.21 +22 06 11.9 19.4   704 – Lincoln Laboratory ETS, New Mexico MPS 124127
2005 01 11.32573 07 16 08.43 +22 06 12.5 19.2   704 – Lincoln Laboratory ETS, New Mexico MPS 124127
2005 01 11.33898 07 16 07.60 +22 06 12.9 19.2   704 – Lincoln Laboratory ETS, New Mexico MPS 124127
2005 01 13.25247 07 14 11.77 +22 06 51.8 19.5 V 291 – LPL/Spacewatch II MPS 124127
2005 01 13.27962 07 14 10.12 +22 06 52.3 19.6 V 291 – LPL/Spacewatch II MPS 124127
2005 01 13.30526 07 14 08.56 +22 06 53.0 19.6 V 291 – LPL/Spacewatch II MPS 124127
2005 03 09.16598 06 57 52.29 +21 36 02.3 20.7 R G96 – Mt. Lemmon Survey MPS 128008
2005 03 09.17257 06 57 52.52 +21 36 02.0 20.1 R G96 – Mt. Lemmon Survey MPS 128008
2005 03 09.17912 06 57 52.54 +21 35 58.4 18.1 R G96 – Mt. Lemmon Survey MPS 128008
2005 03 09.18568 06 57 52.90 +21 36 00.5 17.9 R G96 – Mt. Lemmon Survey MPS 128008
2005 03 11.15824 06 59 02.97 +21 33 16.5 19.7 R G96 – Mt. Lemmon Survey MPS 128008
2005 03 11.16537 06 59 03.22 +21 33 15.9 20.2 R G96 – Mt. Lemmon Survey MPS 128008
2005 03 11.17245 06 59 03.48 +21 33 15.1 20.2 R G96 – Mt. Lemmon Survey MPS 128008
2005 03 11.18173 06 59 03.79 +21 33 14.5 20.2 R G96 – Mt. Lemmon Survey MPS 128008
2005 03 13.15530 07 00 20.38 +21 30 21.6 20.2 R G96 – Mt. Lemmon Survey MPS 129120
2005 03 13.16352 07 00 20.69 +21 30 20.7 19.8 R G96 – Mt. Lemmon Survey MPS 129120
2005 03 13.17172 07 00 21.02 +21 30 20.2 20.2 R G96 – Mt. Lemmon Survey MPS 129120
2005 03 13.17990 07 00 21.32 +21 30 19.3 20.3 R G96 – Mt. Lemmon Survey MPS 129120
2007 06 22.41333 20 55 24.40 -16 35 11.9 21.3 V 691 – Steward Observatory, Kitt Peak-Spacewatch MPS 254486
2007 06 22.43094 20 55 23.98 -16 35 13.1 21.1 V 691 – Steward Observatory, Kitt Peak-Spacewatch MPS 254486
2007 06 22.44855 20 55 23.51 -16 35 13.4 21.1 V 691 – Steward Observatory, Kitt Peak-Spacewatch MPS 254486
2008 10 20.36606 03 58 05.87 +24 06 07.5 19.9 V 691 – Steward Observatory, Kitt Peak-Spacewatch MPS 260597
2008 10 20.38372 03 58 05.38 +24 06 06.6 20.0 V 691 – Steward Observatory, Kitt Peak-Spacewatch MPS 260597
2008 10 20.40139 03 58 04.88 +24 06 05.4 20.0 V 691 – Steward Observatory, Kitt Peak-Spacewatch MPS 260597
2008 10 24.34458 03 56 09.60 +24 01 57.3 20.0 V 691 – Steward Observatory, Kitt Peak-Spacewatch MPS 261536
2008 10 24.36032 03 56 09.04 +24 01 56.4 19.9 V 691 – Steward Observatory, Kitt Peak-Spacewatch MPS 261536
2008 10 24.37646 03 56 08.47 +24 01 55.0 19.9 V 691 – Steward Observatory, Kitt Peak-Spacewatch MPS 261536
2008 10 28.30760 03 53 45.78 +23 55 48.9 19.5   704 – Lincoln Laboratory ETS, New Mexico MPS 261536
2008 10 28.31905 03 53 45.34 +23 55 47.7 19.5   704 – Lincoln Laboratory ETS, New Mexico MPS 261536
2008 10 28.32762 03 53 44.96 +23 55 46.7 19.9 V 691 – Steward Observatory, Kitt Peak-Spacewatch MPS 261536
2008 10 28.33052 03 53 44.85 +23 55 46.6 19.6   704 – Lincoln Laboratory ETS, New Mexico MPS 261536
2008 10 28.34534 03 53 44.24 +23 55 45.2 19.8 V 691 – Steward Observatory, Kitt Peak-Spacewatch MPS 261536
2008 10 28.36305 03 53 43.48 +23 55 42.9 20.0 V 691 – Steward Observatory, Kitt Peak-Spacewatch MPS 261536
2008 11 01.31022 03 50 54.77 +23 47 33.0   704 – Lincoln Laboratory ETS, New Mexico MPS 406903
2008 11 01.32199 03 50 54.14 +23 47 31.7   704 – Lincoln Laboratory ETS, New Mexico MPS 406903
2008 11 01.33377 03 50 53.62 +23 47 29.7   704 – Lincoln Laboratory ETS, New Mexico MPS 406903
2008 11 18.21439 03 35 43.18 +22 51 53.4 19.2 V 703 – Catalina Sky Survey MPS 265248
2008 11 18.22124 03 35 42.82 +22 51 52.3 19.0 V 703 – Catalina Sky Survey MPS 265248
2008 11 18.22806 03 35 42.32 +22 51 50.4 19.1 V 703 – Catalina Sky Survey MPS 265248
2008 11 18.23491 03 35 41.89 +22 51 48.9 18.8 V 703 – Catalina Sky Survey MPS 265248
2008 11 20.32580 03 33 39.48 +22 43 00.3 19.6   704 – Lincoln Laboratory ETS, New Mexico MPS 265248
2008 11 20.33830 03 33 38.82 +22 42 57.6 19.4   704 – Lincoln Laboratory ETS, New Mexico MPS 265248
2008 11 20.35079 03 33 38.06 +22 42 54.0 19.5   704 – Lincoln Laboratory ETS, New Mexico MPS 265248
2008 11 20.36336 03 33 37.28 +22 42 51.9 19.8   704 – Lincoln Laboratory ETS, New Mexico MPS 265248
2008 11 20.37593 03 33 36.52 +22 42 46.7 19.4   704 – Lincoln Laboratory ETS, New Mexico MPS 265248
2008 11 25.24829 03 28 56.13 +22 21 21.1 19.5   704 – Lincoln Laboratory ETS, New Mexico MPS 266445
2008 11 25.26076 03 28 55.45 +22 21 17.1 19.6   704 – Lincoln Laboratory ETS, New Mexico MPS 266445
2008 11 25.27315 03 28 54.67 +22 21 14.4 19.8   704 – Lincoln Laboratory ETS, New Mexico MPS 266445
2008 11 25.28557 03 28 53.96 +22 21 11.1 19.6   704 – Lincoln Laboratory ETS, New Mexico MPS 266445
2008 12 02.19722 03 22 43.06 +21 49 40.5 19.7   704 – Lincoln Laboratory ETS, New Mexico MPS 267517
2008 12 02.20968 03 22 42.32 +21 49 35.3 19.6   704 – Lincoln Laboratory ETS, New Mexico MPS 267517
2008 12 02.22215 03 22 41.72 +21 49 33.6 20.2   704 – Lincoln Laboratory ETS, New Mexico MPS 267517
2008 12 02.23480 03 22 41.06 +21 49 28.8 20.1   704 – Lincoln Laboratory ETS, New Mexico MPS 267517
2008 12 02.24728 03 22 40.41 +21 49 27.6 20.5   704 – Lincoln Laboratory ETS, New Mexico MPS 267517
2008 12 21.19303 03 11 25.65 +20 33 37.5 19.8   704 – Lincoln Laboratory ETS, New Mexico MPS 269979
2008 12 21.20580 03 11 25.42 +20 33 34.9 20.3   704 – Lincoln Laboratory ETS, New Mexico MPS 269979
2008 12 21.21858 03 11 25.10 +20 33 32.2 20.5   704 – Lincoln Laboratory ETS, New Mexico MPS 269979
